Weather History for Capri, Italy

Change the Weather History Date:

Wednesday, December 19, 2012

  Actual Average Record
Temperature  
Mean Temperature 56 °F -  
Max Temperature 61 °F - - ()
Min Temperature 51 °F - - ()
Degree Days  
Heating Degree Days 9    
Growing Degree Days 6 (Base 50)    
Moisture  
Dew Point 39 °F    
Average Humidity 53    
Maximum Humidity 67    
Minimum Humidity 29    
Precipitation  
Precipitation 0.00 in - - ()
Sea Level Pressure  
Sea Level Pressure 29.96 in    
Wind  
Wind Speed 2 mph ()    
Max Wind Speed 5 mph    
Max Gust Speed 21 mph    
Visibility 12.0 miles    
Events      
T = Trace of Precipitation, MM = Missing Value Source: Averaged Metar Reports

Daily Weather History Graph

Daily Weather History Graph

Search for Another Location

Airport:

Trip Planner

Search our weather history database for the weather conditions in past years. The results will help you decide how hot, cold, wet, or windy it might be!

Date:

Astronomy

Dec. 19, 2012 Rise Set
Actual Time 7:22 AM CET 4:38 PM CET
Civil Twilight 6:51 AM CET 5:09 PM CET
Nautical Twilight 6:16 AM CET 5:43 PM CET
Astronomical Twilight 5:43 AM CET 6:17 PM CET
Moon 11:21 AM CET 11:50 PM CET
Length of Visible Light 10h 18m
Length of Day
9h 16m
Waxing Crescent, 42% of the Moon is Illuminated
Dec 19
Waxing Crescent
Dec 20
First Quarter
Dec 28
Full
Jan 5
Last Quarter
Jan 11
New

Hourly Weather History & Observations

Time (CET) Temp. Dew Point Humidity Pressure Visibility Wind Dir Wind Speed Gust Speed Precip Events Conditions
12:55 AM 55.4 °F 39.2 °F 54% 29.83 in - SW 2.3 mph - N/A   Clear
1:00 AM 55 °F 40 °F 46% 29.83 in 12 mi SW 2.3 mph - -  
4:00 AM 56 °F 45 °F 57% 29.85 in 12 mi West 2.3 mph - -  
6:55 AM 53.6 °F 35.6 °F 51% 29.86 in - West 2.3 mph - N/A   Clear
7:00 AM 54 °F 35 °F 37% 29.87 in 12 mi West 2.3 mph - -  
9:55 AM 53.6 °F 37.4 °F 54% 29.92 in - North 1.2 mph - N/A   Clear
10:00 AM 54 °F 38 °F 43% 29.93 in 12 mi North 1.2 mph - -  
10:55 AM 55.4 °F 35.6 °F 47% 29.95 in - North 3.5 mph - N/A   Clear
11:55 AM 55.4 °F 35.6 °F 47% 29.95 in - West 2.3 mph - N/A   Clear
12:55 PM 57.2 °F 33.8 °F 41% 29.92 in - SSW 4.6 mph 18.4 mph N/A   Clear
1:00 PM 58 °F 34 °F 29% 29.95 in 12 mi SSW 4.6 mph - -  
2:55 PM 60.8 °F 39.2 °F 45% 29.95 in - Variable 2.3 mph - N/A   Clear
3:55 PM 60.8 °F 41.0 °F 48% 29.95 in - Variable 2.3 mph - N/A   Clear
4:00 PM 61 °F 41 °F 36% 29.95 in 12 mi 2.3 mph - -  
4:55 PM 55.4 °F 42.8 °F 63% 29.98 in - Variable 2.3 mph - N/A   Clear
5:55 PM 53.6 °F 42.8 °F 67% 29.95 in - Variable 4.6 mph 20.7 mph N/A   Clear
6:55 PM 53.6 °F 42.8 °F 67% 30.01 in - South 3.5 mph 16.1 mph N/A   Clear
7:00 PM 53 °F 43 °F 58% 30.02 in 12 mi South 3.5 mph - -  
7:55 PM 53.6 °F 42.8 °F 67% 30.01 in - WNW 2.3 mph - N/A   Clear
8:55 PM 51.8 °F 41.0 °F 67% 30.04 in - SSW 3.5 mph - N/A   Clear
9:55 PM 51.8 °F 39.2 °F 62% 30.06 in - ENE 4.6 mph - N/A   Clear
10:00 PM 52 °F 40 °F 52% 30.07 in 12 mi ENE 4.6 mph - -  
10:55 PM 51.8 °F 39.2 °F 62% 30.04 in - ESE 2.3 mph - N/A   Clear
11:55 PM 51.8 °F 39.2 °F 62% 30.04 in - East 2.3 mph - N/A   Clear